Home   Weather   Holguín   Past weeks

Flag for Cuba Past Weather in Holguín, Cuba — Yesterday and Last 2 Weeks

72 °F


Feels Like: 67 °F
Forecast: 70 / 84 °F
Wind: 1 mph from North

Location: Holguin Civ / Mil

Current Time: Oct 23, 2016 at 8:12:51 AM

Latest Report: Oct 23, 2016 at 7:55 AM

Visibility: 5 mi

Pressure: 30.01 "Hg

Humidity: 94%

Dew Point: 70 °F

Location of HolguínLocation

Past Weather in Holguín — Graph


Holguín Temperature Yesterday

Maximum temperature yesterday: 90 °F (at 2:50 PM)
Minimum temperature yesterday: 70 °F (at 3:50 AM)
Average temperature yesterday: 78 °F

High & Low Weather Summary for the Past Weeks

High93 °F (Oct 8, 2:50 PM)94% (Oct 8, 7:01 AM)30.01 "Hg (Oct 8, 7:01 AM)
Low68 °F (Oct 12, 5:51 AM)43% (Oct 21, 3:50 PM)29.74 "Hg (Oct 17, 3:52 PM)
Average78 °F79%29.88 "Hg
* Reported Oct 8 7:01 AM — Oct 23 6:51 AM, Holguín, Weather by CustomWeather, © 2016

Note: Actual official high and low records may vary slightly from our data, if they occured in-between our weather recording intervals... More about our weather records


Holguín Weather History for the Previous 24 Hours

Scroll right to see more
Time TempWeatherWind HumidityBarometerVisibility
6:51 AM
Sun, Oct 23
68 °FFog.2 mph94%29.98 "Hg3 mi
5:51 AM70 °FFog.2 mph88%29.98 "Hg4 mi
4:53 AM70 °FFog.2 mph88%29.95 "Hg4 mi
3:51 AM70 °FFog.3 mph88%29.95 "Hg4 mi
2:50 AM70 °FPassing clouds.1 mph94%29.95 "Hg5 mi
1:51 AM72 °FPassing clouds.1 mph88%29.98 "Hg5 mi
12:50 AM72 °FPassing clouds.3 mph88%29.98 "Hg5 mi
11:50 PM
Sat, Oct 22
72 °FPassing clouds.2 mph88%29.98 "Hg6 mi
10:50 PM73 °FPassing clouds.6 mph89%29.98 "Hg6 mi
9:50 PM73 °FPassing clouds.2 mph89%29.98 "Hg6 mi
8:52 PM75 °FPassing clouds.2 mph83%29.95 "Hg6 mi
7:52 PM77 °FPassing clouds.7 mph79%29.92 "Hg6 mi
6:50 PM79 °FPassing clouds.8 mph74%29.92 "Hg6 mi
5:50 PM82 °FScattered clouds.10 mph66%29.89 "Hg6 mi
4:51 PM84 °FScattered clouds.8 mph62%29.86 "Hg6 mi
3:51 PM90 °FScattered clouds.6 mph46%29.86 "Hg6 mi
2:50 PM90 °FScattered clouds.6 mph43%29.86 "Hg6 mi
1:52 PM88 °FScattered clouds.6 mph46%29.89 "Hg6 mi
12:51 PM86 °FScattered clouds.5 mph55%29.92 "Hg6 mi
11:50 AM86 °FScattered clouds.2 mph52%29.92 "Hg6 mi
10:51 AM82 °FScattered clouds.3 mph62%29.95 "Hg6 mi
9:51 AM82 °FPassing clouds.1 mph66%29.95 "Hg6 mi
8:51 AM77 °FPassing clouds.1 mph83%29.92 "Hg6 mi
Weather by CustomWeather, © 2016

See weather overviewHow to use our weather pages